sat.trackr.live / text

‹ back to catalog

STARLINK-35991

NORAD 66861 · 2025-281P

PAYLOAD ACTIVE UNKNOWN

§ Identity

Operator
Country
US
Launch date
2025-12-02
Launch site
AFETR
Launch vehicle
Mass (kg)
RCS (m²)

Purposes: comms

External: N2YO · Heavens-Above · Gunter

§ Orbital elements

Epoch: 2026-05-24T15:13:18.689376Z

Period
94.27 min
Inclination
43.0004°
Eccentricity
0.0000514
Mean motion
15.27593664 rev/d
Perigee alt
482.7 km
Apogee alt
483.4 km
Semi-major
6,861.1 km
B*
7.4127e-4
RAAN
274.2884°
Arg perigee
243.1788°
Mean anomaly
116.9011°
Rev number
2,780

§ Raw data

STARLINK-359911 66861U 25281P   26144.63424409  .00020201  00000+0  74127-3 0  99922 66861  43.0004 274.2884 0000514 243.1788 116.9011 15.27593664 27802

JSON: /api/v1/satellites/66861 · /tle

For live sub-satellite position, see the globe view (requires WebGL).

§ Visibility from observer

Set your observer location to see the next 7 days of passes ≥ 10°. The values pass through the URL so the page stays shareable.

No JS? Fill the form by hand. The geolocation button needs JavaScript.